Location: Asheville, NC
(35.6000°N, 82.5500°W)
Time: 20:19:42
(UTC-04:00)

Vanguard 2 Rocket - Pass Details

Date: 15 March 2018
Orbit: 553 x 3328 km, 32.9° (Epoch: 24 June)

Event Time Altitude Azimuth Distance (km) Brightness Sun altitude
Rises 18:55:09 0° 257° (WSW) 2,712 11.8 7.8°
Reaches altitude 10° 18:57:15 10° 254° (WSW) 1,826 11.0 7.4°
Maximum altitude 19:01:08 60° 173° (S) 703 6.5 6.6°
Drops below altitude 10° 19:06:11 10° 94° (E) 2,365 8.4 5.6°
Sets 19:09:15 0° 91° (E) 3,623 9.3 5.0°
